KLM75C EHAM-EPWA

Flight info

Callsign KLM75C
Flight time 1h 28m
Altitude 37000
Route ARNEM L620 SUVOX Z718 OSNAD DCT HLZ DCT SUBIX DCT OBOKU DCT DOSIX DCT BIMPA
Aircraft B738/M-SDE2E3FGIJ1RWYZ/LB1

Departure

Time 2026-05-05 08:07
Airport Amsterdam Airport Schiphol (EHAM)

Arrival

Time 2026-05-05 09:35
Airport Warsaw Chopin Airport (EPWA)
Time Latitude Longitude Altitude Speed Heading
2026-05-05 07:40 52.30928 4.76888 -2 ft 0 kts 137°
2026-05-05 07:55 52.30943 4.76867 -2 ft 4 kts 142°
2026-05-05 07:55 52.30965 4.76842 -2 ft 4 kts 148°
2026-05-05 07:56 52.30988 4.76819 -2 ft 4 kts 145°
2026-05-05 07:56 52.31004 4.76793 -2 ft 4 kts 92°
2026-05-05 07:56 52.31000 4.76761 -2 ft 4 kts 84°
2026-05-05 07:56 52.30999 4.76747 -2 ft 1 kts 83°
2026-05-05 08:00 52.31000 4.76757 -2 ft 2 kts 81°
2026-05-05 08:00 52.31016 4.76795 -2 ft 6 kts 42°
2026-05-05 08:00 52.31067 4.76852 -2 ft 11 kts 33°
2026-05-05 08:01 52.31141 4.76931 -2 ft 14 kts 33°
2026-05-05 08:01 52.31222 4.77018 -2 ft 15 kts 33°
2026-05-05 08:01 52.31309 4.77113 -2 ft 16 kts 34°
2026-05-05 08:01 52.31407 4.77190 -2 ft 15 kts
2026-05-05 08:02 52.31509 4.77200 -2 ft 11 kts
2026-05-05 08:02 52.31567 4.77138 -2 ft 11 kts 281°
2026-05-05 08:02 52.31566 4.77010 -2 ft 12 kts 266°
2026-05-05 08:02 52.31560 4.76858 -2 ft 15 kts 266°
2026-05-05 08:03 52.31553 4.76664 -2 ft 20 kts 266°
2026-05-05 08:03 52.31545 4.76428 -2 ft 21 kts 266°
2026-05-05 08:03 52.31537 4.76194 -2 ft 20 kts 267°
2026-05-05 08:03 52.31530 4.75969 -2 ft 20 kts 266°
2026-05-05 08:04 52.31522 4.75751 -2 ft 19 kts 266°
2026-05-05 08:04 52.31515 4.75543 -2 ft 18 kts 266°
2026-05-05 08:04 52.31508 4.75338 -2 ft 18 kts 266°
2026-05-05 08:04 52.31501 4.75142 -2 ft 17 kts 266°
2026-05-05 08:05 52.31495 4.74952 -2 ft 16 kts 267°
2026-05-05 08:05 52.31489 4.74780 -2 ft 13 kts 267°
2026-05-05 08:05 52.31528 4.74669 -2 ft 12 kts 342°
2026-05-05 08:05 52.31611 4.74664 -2 ft 12 kts
2026-05-05 08:06 52.31665 4.74727 -1 ft 10 kts 76°
2026-05-05 08:06 52.31672 4.74876 -3 ft 21 kts 86°
2026-05-05 08:06 52.31692 4.75474 -5 ft 87 kts 86°
2026-05-05 08:06 52.31739 4.76798 -2 ft 144 kts 85°
2026-05-05 08:07 52.31812 4.78611 335 ft 163 kts 83°
2026-05-05 08:07 52.31873 4.80420 1174 ft 160 kts 84°
2026-05-05 08:07 52.31938 4.82277 1687 ft 175 kts 83°
2026-05-05 08:07 52.32023 4.84414 1950 ft 200 kts 84°
2026-05-05 08:08 52.31973 4.86816 2196 ft 223 kts 99°
2026-05-05 08:08 52.31435 4.89296 2509 ft 246 kts 111°
2026-05-05 08:08 52.30720 4.91914 3032 ft 257 kts 110°
2026-05-05 08:08 52.29992 4.94639 3684 ft 264 kts 111°
2026-05-05 08:09 52.29296 4.97417 4489 ft 265 kts 108°
2026-05-05 08:09 52.28764 5.00322 5195 ft 270 kts 105°
2026-05-05 08:09 52.28270 5.03302 5946 ft 273 kts 105°
2026-05-05 08:09 52.27775 5.06279 6664 ft 276 kts 105°
2026-05-05 08:10 52.27255 5.09365 7357 ft 280 kts 105°
2026-05-05 08:10 52.26733 5.12412 8021 ft 284 kts 105°
2026-05-05 08:10 52.26189 5.15557 8672 ft 290 kts 105°
2026-05-05 08:10 52.25635 5.18730 9407 ft 292 kts 105°
2026-05-05 08:11 52.25073 5.21929 10113 ft 294 kts 105°
2026-05-05 08:11 52.24495 5.25228 10406 ft 313 kts 104°
2026-05-05 08:11 52.24101 5.28852 10561 ft 334 kts 95°
2026-05-05 08:11 52.23933 5.32730 10798 ft 350 kts 92°
2026-05-05 08:12 52.23801 5.36679 11343 ft 356 kts 92°
2026-05-05 08:12 52.23643 5.40756 11889 ft 363 kts 94°
2026-05-05 08:12 52.23452 5.44866 12636 ft 363 kts 94°
2026-05-05 08:12 52.23245 5.48967 13415 ft 364 kts 94°
2026-05-05 08:13 52.22983 5.53110 13974 ft 371 kts 101°
2026-05-05 08:13 52.22172 5.57138 14618 ft 373 kts 112°
2026-05-05 08:13 52.21174 5.61070 15293 ft 376 kts 112°
2026-05-05 08:13 52.20157 5.65035 15847 ft 382 kts 112°
2026-05-05 08:14 52.19135 5.69072 16402 ft 388 kts 112°
2026-05-05 08:14 52.18124 5.73117 17039 ft 391 kts 112°
2026-05-05 08:14 52.17104 5.77244 17707 ft 393 kts 112°
2026-05-05 08:14 52.16085 5.81389 18336 ft 397 kts 112°
2026-05-05 08:15 52.15052 5.85599 18750 ft 403 kts 112°
2026-05-05 08:15 52.14001 5.89879 19316 ft 404 kts 112°
2026-05-05 08:15 52.12968 5.94076 19959 ft 404 kts 112°
2026-05-05 08:15 52.11917 5.98341 20508 ft 407 kts 113°
2026-05-05 08:16 52.10847 6.02663 20900 ft 414 kts 113°
2026-05-05 08:16 52.09772 6.07024 21361 ft 418 kts 112°
2026-05-05 08:16 52.08996 6.11603 21919 ft 421 kts 101°
2026-05-05 08:16 52.08517 6.16314 22438 ft 424 kts 99°
2026-05-05 08:17 52.08091 6.21081 22870 ft 428 kts 99°
2026-05-05 08:17 52.07656 6.25918 23305 ft 432 kts 99°
2026-05-05 08:17 52.07203 6.30717 23700 ft 436 kts 100°
2026-05-05 08:17 52.06719 6.35600 24082 ft 439 kts 101°
2026-05-05 08:18 52.06214 6.40520 24460 ft 442 kts 101°
2026-05-05 08:18 52.05693 6.45491 24776 ft 447 kts 101°
2026-05-05 08:18 52.05171 6.50427 25113 ft 450 kts 101°
2026-05-05 08:18 52.04636 6.55469 25496 ft 452 kts 101°
2026-05-05 08:19 52.04097 6.60537 25865 ft 455 kts 102°
2026-05-05 08:19 52.03556 6.65624 26217 ft 457 kts 102°
2026-05-05 08:19 52.03016 6.70672 26552 ft 460 kts 102°
2026-05-05 08:19 52.02460 6.75818 26895 ft 463 kts 103°
2026-05-05 08:20 52.01773 6.80944 27213 ft 465 kts 106°
2026-05-05 08:20 52.00956 6.86029 27550 ft 467 kts 108°
2026-05-05 08:20 52.00103 6.91078 27818 ft 470 kts 108°
2026-05-05 08:20 51.99250 6.96216 28097 ft 473 kts 108°
2026-05-05 08:21 51.98410 7.01406 28409 ft 476 kts 107°
2026-05-05 08:21 51.97650 7.06670 28704 ft 480 kts 101°
2026-05-05 08:21 51.97420 7.12101 28988 ft 486 kts 90°
2026-05-05 08:21 51.97742 7.17588 29286 ft 490 kts 81°
2026-05-05 08:22 51.98611 7.22962 29550 ft 493 kts 72°
2026-05-05 08:22 51.99701 7.28178 29808 ft 496 kts 71°
2026-05-05 08:22 52.00852 7.33499 30043 ft 499 kts 71°
2026-05-05 08:22 52.02005 7.38852 30237 ft 501 kts 71°
2026-05-05 08:23 52.03129 7.44158 30464 ft 503 kts 71°
2026-05-05 08:23 52.04247 7.49538 30790 ft 502 kts 72°
2026-05-05 08:23 52.05347 7.54912 31159 ft 501 kts 72°
2026-05-05 08:23 52.06439 7.60302 31434 ft 501 kts 72°
2026-05-05 08:24 52.07528 7.65705 31695 ft 502 kts 72°
2026-05-05 08:24 52.08613 7.71101 31998 ft 502 kts 72°
2026-05-05 08:24 52.09699 7.76515 32341 ft 501 kts 72°
2026-05-05 08:24 52.10780 7.81911 32650 ft 500 kts 72°
2026-05-05 08:25 52.11859 7.87308 32919 ft 501 kts 72°
2026-05-05 08:25 52.12919 7.92628 33159 ft 501 kts 72°
2026-05-05 08:25 52.13994 7.98033 33452 ft 500 kts 72°
2026-05-05 08:25 52.15065 8.03432 33763 ft 499 kts 72°
2026-05-05 08:26 52.16132 8.08826 34030 ft 499 kts 73°
2026-05-05 08:26 52.17194 8.14209 34257 ft 499 kts 73°
2026-05-05 08:26 52.18253 8.19588 34518 ft 498 kts 73°
2026-05-05 08:26 52.19306 8.24954 34820 ft 496 kts 73°
2026-05-05 08:27 52.20234 8.30351 35089 ft 493 kts 81°
2026-05-05 08:27 52.20745 8.35877 35330 ft 491 kts 84°
2026-05-05 08:27 52.21134 8.41403 35544 ft 490 kts 85°
2026-05-05 08:27 52.21485 8.46857 35731 ft 490 kts 86°
2026-05-05 08:28 52.21840 8.52385 35969 ft 490 kts 85°
2026-05-05 08:28 52.22207 8.57899 36232 ft 488 kts 85°
2026-05-05 08:28 52.22587 8.63397 36513 ft 486 kts 85°
2026-05-05 08:28 52.22974 8.68864 36740 ft 485 kts 85°
2026-05-05 08:29 52.23367 8.74338 36899 ft 485 kts 85°
2026-05-05 08:29 52.23762 8.79844 36902 ft 488 kts 85°
2026-05-05 08:30 52.24931 8.96291 36904 ft 485 kts 85°
2026-05-05 08:30 52.25688 9.07165 36904 ft 483 kts 85°
2026-05-05 08:31 52.26435 9.18068 36914 ft 482 kts 85°
2026-05-05 08:31 52.27170 9.28940 36907 ft 480 kts 85°
2026-05-05 08:32 52.27889 9.39728 36905 ft 480 kts 85°
2026-05-05 08:32 52.28602 9.50584 36904 ft 480 kts 85°
2026-05-05 08:33 52.29303 9.61409 36915 ft 481 kts 85°
2026-05-05 08:33 52.30000 9.72318 36917 ft 483 kts 86°
2026-05-05 08:34 52.30685 9.83207 36917 ft 484 kts 86°
2026-05-05 08:34 52.31366 9.94210 36895 ft 486 kts 86°
2026-05-05 08:35 52.31926 10.03369 36903 ft 488 kts 86°
2026-05-05 08:35 52.32592 10.14427 36906 ft 489 kts 86°
2026-05-05 08:36 52.33251 10.25533 36908 ft 490 kts 86°
2026-05-05 08:36 52.33895 10.36577 36910 ft 491 kts 86°
2026-05-05 08:37 52.34534 10.47707 36893 ft 490 kts 86°
2026-05-05 08:37 52.35161 10.58816 36914 ft 490 kts 86°
2026-05-05 08:38 52.35774 10.69859 36908 ft 489 kts 86°
2026-05-05 08:38 52.36364 10.80940 36907 ft 487 kts 88°
2026-05-05 08:39 52.36653 10.92013 36897 ft 486 kts 91°
2026-05-05 08:39 52.36803 11.03010 36885 ft 484 kts 91°
2026-05-05 08:40 52.36962 11.14052 36887 ft 484 kts 91°
2026-05-05 08:40 52.37138 11.24991 36891 ft 483 kts 90°
2026-05-05 08:41 52.37318 11.36013 36893 ft 483 kts 91°
2026-05-05 08:41 52.37488 11.47018 36887 ft 484 kts 91°
2026-05-05 08:42 52.37646 11.57978 36886 ft 484 kts 91°
2026-05-05 08:42 52.37794 11.69021 36889 ft 484 kts 91°
2026-05-05 08:43 52.37930 11.80018 36890 ft 485 kts 91°
2026-05-05 08:43 52.38058 11.91084 36885 ft 486 kts 91°
2026-05-05 08:44 52.38175 12.02144 36876 ft 486 kts 91°
2026-05-05 08:44 52.38282 12.13214 36890 ft 486 kts 91°
2026-05-05 08:45 52.38378 12.24222 36892 ft 487 kts 91°
2026-05-05 08:45 52.38465 12.35325 36887 ft 487 kts 91°
2026-05-05 08:46 52.38541 12.46420 36886 ft 487 kts 91°
2026-05-05 08:46 52.38607 12.57438 36879 ft 486 kts 92°
2026-05-05 08:47 52.38662 12.68529 36886 ft 486 kts 92°
2026-05-05 08:47 52.38707 12.79607 36884 ft 486 kts 92°
2026-05-05 08:48 52.38741 12.90607 36883 ft 486 kts 92°
2026-05-05 08:48 52.38766 13.01701 36867 ft 485 kts 92°
2026-05-05 08:49 52.38780 13.12695 36900 ft 485 kts 92°
2026-05-05 08:49 52.38783 13.23749 36906 ft 484 kts 92°
2026-05-05 08:50 52.38777 13.34728 36914 ft 484 kts 92°
2026-05-05 08:50 52.38760 13.45774 36910 ft 484 kts 92°
2026-05-05 08:51 52.38733 13.56723 36911 ft 484 kts 92°
2026-05-05 08:51 52.38695 13.67805 36920 ft 485 kts 92°
2026-05-05 08:52 52.38648 13.78818 36903 ft 485 kts 92°
2026-05-05 08:52 52.38590 13.89883 36915 ft 485 kts 93°
2026-05-05 08:53 52.38522 14.00876 36889 ft 485 kts 93°
2026-05-05 08:53 52.38444 14.11909 36905 ft 484 kts 93°
2026-05-05 08:54 52.38356 14.22933 36897 ft 483 kts 93°
2026-05-05 08:54 52.38258 14.33871 36918 ft 482 kts 93°
2026-05-05 08:55 52.38149 14.44862 36893 ft 482 kts 93°
2026-05-05 08:55 52.38032 14.55856 36904 ft 482 kts 93°
2026-05-05 08:56 52.37852 14.66753 36910 ft 481 kts 95°
2026-05-05 08:56 52.37570 14.77725 36910 ft 482 kts 95°
2026-05-05 08:57 52.37272 14.88718 36902 ft 483 kts 95°
2026-05-05 08:57 52.36980 14.99674 36892 ft 484 kts 95°
2026-05-05 08:58 52.36683 15.10678 36882 ft 484 kts 95°
2026-05-05 08:58 52.36377 15.21707 36887 ft 484 kts 95°
2026-05-05 08:59 52.36062 15.32649 36896 ft 484 kts 95°
2026-05-05 08:59 52.35734 15.43679 36895 ft 484 kts 95°
2026-05-05 09:00 52.35396 15.54692 36876 ft 484 kts 95°
2026-05-05 09:00 52.35050 15.65637 36883 ft 484 kts 95°
2026-05-05 09:01 52.34693 15.76619 36890 ft 483 kts 95°
2026-05-05 09:01 52.34326 15.87604 36894 ft 483 kts 95°
2026-05-05 09:02 52.33948 15.98591 36892 ft 483 kts 95°
2026-05-05 09:02 52.33561 16.09516 36884 ft 483 kts 95°
2026-05-05 09:03 52.33164 16.20497 36890 ft 482 kts 96°
2026-05-05 09:03 52.32759 16.31376 36885 ft 482 kts 96°
2026-05-05 09:04 52.32342 16.42308 36887 ft 481 kts 96°
2026-05-05 09:04 52.31916 16.53233 36889 ft 480 kts 96°
2026-05-05 09:05 52.31483 16.64067 36882 ft 479 kts 96°
2026-05-05 09:05 52.31038 16.74947 36886 ft 479 kts 96°
2026-05-05 09:06 52.30582 16.85830 36881 ft 479 kts 96°
2026-05-05 09:06 52.30120 16.96637 36888 ft 479 kts 96°
2026-05-05 09:07 52.29646 17.07493 36864 ft 479 kts 96°
2026-05-05 09:07 52.29161 17.18379 36891 ft 479 kts 96°
2026-05-05 09:08 52.28666 17.29236 36891 ft 479 kts 96°
2026-05-05 09:08 52.28166 17.40017 36892 ft 479 kts 97°
2026-05-05 09:09 52.27651 17.50869 36888 ft 479 kts 97°
2026-05-05 09:09 52.27127 17.61727 36892 ft 478 kts 97°
2026-05-05 09:10 52.26596 17.72514 36877 ft 478 kts 97°
2026-05-05 09:10 52.26053 17.83357 36842 ft 478 kts 97°
2026-05-05 09:10 52.25776 17.88811 36311 ft 484 kts 97°
2026-05-05 09:11 52.25501 17.94205 35797 ft 481 kts 97°
2026-05-05 09:11 52.25277 17.99662 35181 ft 482 kts 92°
2026-05-05 09:11 52.25480 18.05128 34562 ft 484 kts 84°
2026-05-05 09:11 52.25937 18.10565 33940 ft 484 kts 83°
2026-05-05 09:12 52.26427 18.15992 33405 ft 480 kts 83°
2026-05-05 09:12 52.26912 18.21366 32926 ft 475 kts 83°
2026-05-05 09:12 52.27372 18.26627 32482 ft 470 kts 84°
2026-05-05 09:12 52.27816 18.31900 32031 ft 465 kts 84°
2026-05-05 09:13 52.28245 18.37123 31586 ft 461 kts 84°
2026-05-05 09:13 52.28661 18.42304 31142 ft 457 kts 84°
2026-05-05 09:13 52.29063 18.47377 30728 ft 454 kts 84°
2026-05-05 09:13 52.29466 18.52482 30293 ft 451 kts 84°
2026-05-05 09:14 52.29863 18.57542 29846 ft 448 kts 84°
2026-05-05 09:14 52.30256 18.62577 29336 ft 445 kts 84°
2026-05-05 09:14 52.30644 18.67565 28903 ft 440 kts 84°
2026-05-05 09:14 52.31026 18.72505 28469 ft 435 kts 84°
2026-05-05 09:15 52.31404 18.77406 28016 ft 431 kts 84°
2026-05-05 09:15 52.31775 18.82248 27585 ft 427 kts 84°
2026-05-05 09:15 52.32136 18.86999 27151 ft 424 kts 84°
2026-05-05 09:15 52.32497 18.91767 26727 ft 421 kts 84°
2026-05-05 09:16 52.32855 18.96510 26299 ft 418 kts 84°
2026-05-05 09:16 52.33208 19.01221 25879 ft 415 kts 84°
2026-05-05 09:16 52.33556 19.05900 25465 ft 412 kts 84°
2026-05-05 09:16 52.33900 19.10541 25053 ft 410 kts 84°
2026-05-05 09:17 52.34238 19.15106 24646 ft 408 kts 84°
2026-05-05 09:17 52.34575 19.19697 24231 ft 405 kts 84°
2026-05-05 09:17 52.34903 19.24273 23827 ft 403 kts 85°
2026-05-05 09:17 52.35160 19.28839 23380 ft 402 kts 86°
2026-05-05 09:18 52.35372 19.33392 22918 ft 399 kts 87°
2026-05-05 09:18 52.35570 19.37854 22489 ft 396 kts 87°
2026-05-05 09:18 52.35772 19.42350 22081 ft 393 kts 87°
2026-05-05 09:18 52.35976 19.46792 21659 ft 390 kts 87°
2026-05-05 09:19 52.36182 19.51211 21261 ft 387 kts 87°
2026-05-05 09:19 52.36389 19.55601 20873 ft 385 kts 87°
2026-05-05 09:19 52.36593 19.59957 20470 ft 383 kts 87°
2026-05-05 09:19 52.36794 19.64254 20079 ft 381 kts 87°
2026-05-05 09:20 52.36994 19.68569 19689 ft 379 kts 87°
2026-05-05 09:20 52.37191 19.72877 19296 ft 378 kts 87°
2026-05-05 09:20 52.37384 19.77169 18945 ft 376 kts 90°
2026-05-05 09:20 52.37054 19.81324 18899 ft 365 kts 112°
2026-05-05 09:21 52.36071 19.85111 18675 ft 360 kts 120°
2026-05-05 09:21 52.34938 19.88770 18232 ft 362 kts 121°
2026-05-05 09:21 52.33783 19.92389 17735 ft 364 kts 121°
2026-05-05 09:21 52.32595 19.96094 17319 ft 362 kts 121°
2026-05-05 09:22 52.31447 19.99674 16971 ft 359 kts 121°
2026-05-05 09:22 52.30294 20.03272 16615 ft 356 kts 121°
2026-05-05 09:22 52.29151 20.06847 16244 ft 354 kts 122°
2026-05-05 09:22 52.28016 20.10403 15870 ft 352 kts 122°
2026-05-05 09:23 52.26890 20.13942 15510 ft 350 kts 122°
2026-05-05 09:23 52.25771 20.17461 15170 ft 347 kts 121°
2026-05-05 09:23 52.25035 20.19773 14955 ft 345 kts 121°
2026-05-05 09:23 52.23928 20.23246 14632 ft 343 kts 122°
2026-05-05 09:24 52.22835 20.26683 14303 ft 340 kts 122°
2026-05-05 09:24 52.21750 20.30106 13959 ft 339 kts 122°
2026-05-05 09:24 52.20677 20.33502 13720 ft 335 kts 122°
2026-05-05 09:24 52.19614 20.36876 13464 ft 334 kts 122°
2026-05-05 09:25 52.18553 20.40250 13201 ft 333 kts 122°
2026-05-05 09:25 52.17505 20.43575 12944 ft 333 kts 121°
2026-05-05 09:25 52.16447 20.46927 12687 ft 333 kts 121°
2026-05-05 09:25 52.15382 20.50290 12429 ft 333 kts 121°
2026-05-05 09:26 52.14320 20.53634 12174 ft 332 kts 121°
2026-05-05 09:26 52.13259 20.56965 11911 ft 330 kts 121°
2026-05-05 09:26 52.12206 20.60266 11650 ft 326 kts 121°
2026-05-05 09:26 52.11163 20.63517 11404 ft 321 kts 121°
2026-05-05 09:27 52.10087 20.66612 11178 ft 314 kts 126°
2026-05-05 09:27 52.08951 20.69568 11117 ft 303 kts 126°
2026-05-05 09:27 52.07833 20.72437 10905 ft 298 kts 127°
2026-05-05 09:27 52.06724 20.75270 10598 ft 296 kts 126°
2026-05-05 09:28 52.05616 20.78083 10319 ft 295 kts 127°
2026-05-05 09:28 52.04508 20.80885 10032 ft 293 kts 127°
2026-05-05 09:28 52.03417 20.83637 9655 ft 288 kts 127°
2026-05-05 09:28 52.02342 20.86337 9110 ft 288 kts 127°
2026-05-05 09:29 52.01251 20.89069 8610 ft 286 kts 127°
2026-05-05 09:29 52.00169 20.91774 8148 ft 284 kts 127°
2026-05-05 09:29 51.99098 20.94447 7715 ft 279 kts 127°
2026-05-05 09:29 51.98063 20.97036 7122 ft 276 kts 127°
2026-05-05 09:30 51.97012 20.99652 6400 ft 277 kts 127°
2026-05-05 09:30 51.95967 21.02280 5754 ft 276 kts 124°
2026-05-05 09:30 51.95383 21.05202 5334 ft 271 kts 95°
2026-05-05 09:30 51.95733 21.08084 5213 ft 256 kts 65°
2026-05-05 09:31 51.96843 21.10257 4813 ft 250 kts 34°
2026-05-05 09:31 51.98441 21.11252 4308 ft 244 kts
2026-05-05 09:31 52.00069 21.10835 3771 ft 240 kts 338°
2026-05-05 09:31 52.01584 21.09822 3364 ft 229 kts 332°
2026-05-05 09:32 52.02956 21.08682 3093 ft 215 kts 329°
2026-05-05 09:32 52.04219 21.07559 2789 ft 198 kts 328°
2026-05-05 09:32 52.05386 21.06527 2550 ft 185 kts 329°
2026-05-05 09:32 52.06496 21.05549 2314 ft 179 kts 329°
2026-05-05 09:33 52.07568 21.04612 2092 ft 172 kts 330°
2026-05-05 09:33 52.08610 21.03698 1883 ft 171 kts 328°
2026-05-05 09:33 52.09653 21.02778 1662 ft 169 kts 329°
2026-05-05 09:33 52.10672 21.01887 1432 ft 170 kts 333°
2026-05-05 09:34 52.11706 21.00977 1214 ft 168 kts 331°
2026-05-05 09:34 52.12718 21.00080 1025 ft 164 kts 332°
2026-05-05 09:34 52.13726 20.99218 770 ft 162 kts 332°
2026-05-05 09:34 52.14716 20.98330 557 ft 163 kts 332°
2026-05-05 09:35 52.15716 20.97460 369 ft 164 kts 333°
2026-05-05 09:35 52.17218 20.96147 334 ft 63 kts 331°
2026-05-05 09:35 52.17421 20.95987 337 ft 13 kts 355°
2026-05-05 09:36 52.17502 20.96029 336 ft 12 kts 25°
2026-05-05 09:36 52.17572 20.96097 335 ft 11 kts 52°
2026-05-05 09:36 52.17574 20.96218 336 ft 11 kts 120°
2026-05-05 09:36 52.17513 20.96289 336 ft 11 kts 152°
2026-05-05 09:37 52.17448 20.96347 338 ft 10 kts 151°
2026-05-05 09:37 52.17382 20.96405 337 ft 11 kts 151°
2026-05-05 09:37 52.17309 20.96468 334 ft 12 kts 152°
2026-05-05 09:37 52.17229 20.96538 336 ft 14 kts 152°
2026-05-05 09:38 52.17150 20.96608 334 ft 11 kts 144°
2026-05-05 09:38 52.17141 20.96722 336 ft 11 kts 64°
2026-05-05 09:38 52.17154 20.96830 338 ft 10 kts 122°
2026-05-05 09:38 52.17098 20.96892 337 ft 10 kts 151°
2026-05-05 09:39 52.17042 20.96941 335 ft 7 kts 152°
2026-05-05 09:39 52.17025 20.96991 338 ft 5 kts 83°
2026-05-05 09:39 52.17035 20.97043 335 ft 5 kts 70°
2026-05-05 09:39 52.17046 20.97093 337 ft 2 kts 71°
2026-05-05 09:40 52.17048 20.97103 338 ft 0 kts 71°
2026-05-05 09:40 52.17048 20.97105 338 ft 1 kts 72°